User: anonymous   Login
Location: Stoke Bliss
(52.2667°N, 2.5167°W)
Time: 14:24:30
(UTC+00:00)
Language:

Cosmos 1937 Rocket - Orbit

View from above orbital plane
View from above orbital plane
View from above satellite
View from above satellite

Ground track
Ground track

The orbit data is extracted from the following two-line orbital elements,

1 19039U 88029B   21127.18553076  .00000011  00000-0  12148-4 0  9999
2 19039  74.0484 204.2273 0023345  22.3815 337.8352 14.38507822735027
Epoch (UTC): 07 May 2021 04:27:09
Eccentricity: 0.0023345
inclination: 74.0484°
perigee height: 747 km
apogee height: 780 km
right ascension of ascending node: 204.2273°
argument of perigee: 22.3815°
revolutions per day: 14.38507822
mean anomaly at epoch: 337.8352°
orbit number at epoch: 73502

The dashed part of the orbit path shows where the satellite is in the earth's shadow,  

DLR